ARIANE 44LP DEB, 25543

Orbit data source: Space-Track

ARIANE 44LP DEB, 25543 is space debris in HEO originally from a launch on Sun, 11 Dec 1988 UTC launched from the French Guiana (FRGUI). Debris objects in space refer to the collection of defunct objects orbiting the Earth. Examples of debris include non-operational satellites, rocket bodies, and fragments generated from explosions, collisions, or faulty payload assembly.

Loading next visibility...
Identifier
25543, 1988-109K
Orbit
HEO
Country
Flag of FRFR
Related business
Manufacturer
Unknown
Mission
Spacecraft
Bus & Motor
Unknown
Mass
Unknown
Launch date (UTC)
1988-12-11 (38 years ago)
Launch vehicle
Unknown
Launch site
French Guiana (FRGUI)
Object type
Payload
Rocket body
Debris
Shape & HBR
Unknown shape, 2.8 m
Radar Cross Section
Large (>1 m²)

Expand to show TLE details & history
Last TLE update: 23 hours ago

TLE from 23 hours ago
0 ARIANE 44LP DEB
1 25543U 88109K   26256.68467328  .00000047  00000-0  89317-3 0  9992
2 25543   6.5398 188.2794 7174422 148.4613 287.9087  2.30749820238723
Epoch: 2026-09-13T16:25Z
TLE epoch observation values (Epoch: 2026-09-13T16:25:55.771Z)
Latitude
0.00003°
Longitude
-51.13058°
Altitude
23,947.84 km
Speed
3.132 km/s
True Right ascension
12h 32m 06s
True Declination
0° 00' 00"
Sunlit
Object was in daylight at epoch
Visualization orbit readout
Latitude
Unknown
Longitude
Unknown
Altitude
Unknown
Speed
Unknown
Apparent Right ascension
Unknown
Apparent Declination
Unknown
Sunlit
N/A
Visualization observer readout
Local Sidereal Time
07:34:17
Azimuth
Unknown
Elevation
Unknown
Doppler factor
Unknown
Orbital elements
Apogee altitude
35,176.37 km
Perigee altitude
458.512 km
Semi-major axis
24,195.578 km
Eccentricity
0.71744
Inclination
6.5398°
RAAN
188.2794°
Arg. of periapsis
148.4613°
True anomaly
211.3895°
Mean anomaly
287.9087°
Eccentric anomaly
249.42448°
Mean motion
0.57669 °/min
Orbital period
624.26 mins
BSTAR
0.00089317
Loading maneuver chart data...
Computing Atmospheric mass density...
Loading historical data...
Loading historical data...
Loading historical data...
Loading historical data...
Loading historical data...
Loading historical data...
Loading historical data...

Documentation

Showing up to 5 results
|